Tracking 21612 objects as of 22-Oct-2020
HD Live streaming from Space Station
objects crossing your sky now

USA 229 DEB

Track USA 229 DEB now!
10-day predictions


NORAD ID: 37391
Int'l Code: 2011-014B
Perigee: 978.6 km
Apogee: 1,248.2 km
Inclination: 63.4 °
Period: 107.4 minutes
Semi major axis: 7484 km
RCS: Unknown
Launch date: April 15, 2011
Source: United States (US)
Launch site: AIR FORCE WESTERN TEST RANGE (AFWTR)

Note: This is SATELLITE DEBRIS
aabbcc
Your satellite tracking list
Your tracking list is empty




NASA's NSSDC Master Catalog

Two Line Element Set (TLE):
1 37391U 11014B   20288.79990657 0.00000000  00000-0  00000-0 0    05
2 37391  63.4410 162.2188 0180165 358.3949   1.6051 13.40809071    09
Source of the keplerian elements: McCants